Location: Newark
(35.8833°N, 14.5000°E)
Time: 22:03:30
(UTC+00:00)

Altair - Pass Details

Date: 25 November 2019
Orbit: 1502 x 1682 km, 47.2° (Epoch: 12 December)

Event Time Altitude Azimuth Distance (km) Brightness Sun altitude
Rises 03:36:16 0° 289° (WNW) 4,638 - -26.3°
Reaches altitude 10° 03:39:34 10° 297° (WNW) 3,652 - -25.6°
Exits shadow 03:44:19 30° 320° (NW) 2,452 8.1 -24.7°
Maximum altitude 03:48:07 42° 6° (N) 2,051 8.1 -23.9°
Drops below altitude 10° 03:56:47 10° 75° (ENE) 3,700 10.4 -22.2°
Sets 04:00:08 0° 82° (E) 4,704 11.3 -21.5°
